When you browse on this site, cookies collect data to enhance your experience and personalize the content and advertising you see.
Visit our Privacy Policy to learn more. By continuing to use the site, you agree to this use of cookies and data.
  • In United Kingdom
  • List of Countries
  • For 7 days
  • Water Temperature
  • Satellite Maps
  • Weather Map
  • Weather Widgets
  • user-avatar
    Login

    Hourly Weather Khampho

    Today, 23 April, Tuesday

    Time Temperature Precipitation Wind Pressure Humidity
    00:00 +29°C° 0 mm 0 mps 735 mmHg 63%
    01:00 +28°C° 0 mm 0 mps 735 mmHg 67%
    02:00 +28°C° 0 mm 0 mps 735 mmHg 69%
    03:00 +28°C° 0 mm 0 mps 735 mmHg 70%
    04:00 +29°C° 0 mm 1 mps 735 mmHg 72%
    05:00 +28°C° 0 mm 0 mps 735 mmHg 70%
    06:00 +28°C° 0 mm 0 mps 735 mmHg 68%
    07:00 +29°C° 0 mm 0 mps 736 mmHg 65%
    08:00 +32°C° 0 mm 0 mps 736 mmHg 56%
    09:00 +36°C° 0 mm 1 mps 737 mmHg 47%
    10:00 +39°C° 0 mm 1 mps 737 mmHg 39%
    11:00 +40°C° 0 mm 1 mps 736 mmHg 35%
    12:00 +41°C° 0 mm 2 mps 736 mmHg 31%
    13:00 +41°C° 0 mm 2 mps 736 mmHg 30%
    14:00 +41°C° 0 mm 2 mps 735 mmHg 29%
    15:00 +41°C° 0 mm 2 mps 735 mmHg 28%
    16:00 +41°C° 0 mm 1 mps 734 mmHg 26%
    17:00 +39°C° 0 mm 1 mps 734 mmHg 30%
    18:00 +36°C° 0 mm 1 mps 734 mmHg 34%
    19:00 +33°C° 0 mm 1 mps 735 mmHg 41%
    20:00 +33°C° 0 mm 1 mps 735 mmHg 43%
    21:00 +30°C° 0 mm 0 mps 735 mmHg 44%
    22:00 +29°C° 0 mm 0 mps 735 mmHg 46%
    23:00 +29°C° 0 mm 0 mps 735 mmHg 48%

    Tomorrow, 24 April, Wednesday

    Time Temperature Precipitation Wind Pressure Humidity
    00:00 +28°C° 0 mm 0 mps 735 mmHg 49%
    01:00 +30°C° 0 mm 1 mps 735 mmHg 51%
    02:00 +29°C° 0 mm 1 mps 735 mmHg 53%
    03:00 +29°C° 0 mm 1 mps 735 mmHg 55%
    04:00 +28°C° 0 mm 1 mps 735 mmHg 57%
    05:00 +29°C° 0 mm 1 mps 735 mmHg 55%
    06:00 +30°C° 0 mm 1 mps 736 mmHg 54%
    07:00 +31°C° 0 mm 1 mps 736 mmHg 52%
    08:00 +34°C° 0 mm 1 mps 736 mmHg 45%
    09:00 +37°C° 0 mm 1 mps 737 mmHg 37%
    10:00 +41°C° 0 mm 1 mps 737 mmHg 29%
    11:00 +42°C° 0 mm 1 mps 736 mmHg 27%
    12:00 +43°C° 0 mm 2 mps 736 mmHg 24%
    13:00 +45°C° 0 mm 2 mps 735 mmHg 22%
    14:00 +45°C° 0 mm 2 mps 735 mmHg 21%
    15:00 +45°C° 0 mm 2 mps 734 mmHg 21%
    16:00 +44°C° 0 mm 1 mps 733 mmHg 20%
    17:00 +41°C° 0 mm 1 mps 733 mmHg 23%
    18:00 +39°C° 0 mm 1 mps 733 mmHg 27%
    19:00 +36°C° 0 mm 1 mps 733 mmHg 30%
    20:00 +35°C° 0 mm 1 mps 733 mmHg 32%
    21:00 +34°C° 0 mm 1 mps 734 mmHg 34%
    22:00 +33°C° 0 mm 1 mps 734 mmHg 36%
    23:00 +32°C° 0 mm 1 mps 734 mmHg 41%

    Day after tomorrow, 25 April, Thursday

    Time Temperature Precipitation Wind Pressure Humidity
    00:00 +31°C° 0 mm 1 mps 734 mmHg 46%
    01:00 +30°C° 0 mm 1 mps 733 mmHg 51%
    02:00 +30°C° 0 mm 1 mps 733 mmHg 53%
    03:00 +29°C° 0 mm 1 mps 733 mmHg 55%
    04:00 +29°C° 0 mm 1 mps 733 mmHg 57%
    05:00 +30°C° 0 mm 1 mps 734 mmHg 55%
    06:00 +31°C° 0 mm 1 mps 734 mmHg 53%
    07:00 +32°C° 0 mm 1 mps 735 mmHg 51%
    08:00 +35°C° 0 mm 2 mps 735 mmHg 44%
    09:00 +38°C° 0 mm 2 mps 736 mmHg 36%
    10:00 +40°C° 0 mm 3 mps 736 mmHg 29%
    11:00 +43°C° 0 mm 3 mps 735 mmHg 27%
    12:00 +44°C° 0 mm 3 mps 735 mmHg 25%
    13:00 +45°C° 0 mm 2 mps 734 mmHg 23%
    14:00 +43°C° 0 mm 2 mps 734 mmHg 24%
    15:00 +43°C° 0 mm 2 mps 733 mmHg 25%
    16:00 +42°C° 0 mm 2 mps 732 mmHg 26%
    17:00 +40°C° 0 mm 2 mps 733 mmHg 29%
    18:00 +37°C° 0 mm 1 mps 733 mmHg 32%
    19:00 +36°C° 0 mm 1 mps 733 mmHg 35%
    20:00 +35°C° 0 mm 1 mps 734 mmHg 38%
    21:00 +34°C° 0 mm 1 mps 734 mmHg 41%
    22:00 +33°C° 0 mm 1 mps 735 mmHg 44%
    23:00 +32°C° 0 mm 1 mps 734 mmHg 47%

    26 April, Friday

    Time Temperature Precipitation Wind Pressure Humidity
    00:00 +32°C° 0 mm 1 mps 734 mmHg 51%
    01:00 +31°C° 0 mm 1 mps 734 mmHg 54%
    02:00 +30°C° 0.1 mm 1 mps 733 mmHg 58%
    03:00 +29°C° 0.1 mm 1 mps 733 mmHg 61%
    04:00 +29°C° 0.1 mm 1 mps 733 mmHg 65%
    05:00 +29°C° 0.4 mm 1 mps 733 mmHg 66%
    06:00 +27°C° 0.4 mm 0 mps 734 mmHg 67%
    07:00 +28°C° 0.4 mm 0 mps 735 mmHg 68%
    08:00 +33°C° 0.2 mm 1 mps 735 mmHg 58%
    09:00 +36°C° 0.2 mm 2 mps 735 mmHg 48%
    10:00 +39°C° 0.2 mm 2 mps 736 mmHg 39%
    11:00 +41°C° 0 mm 2 mps 735 mmHg 35%
    12:00 +42°C° 0 mm 2 mps 735 mmHg 31%
    13:00 +45°C° 0 mm 2 mps 734 mmHg 27%
    14:00 +43°C° 0 mm 2 mps 734 mmHg 28%
    15:00 +42°C° 0 mm 2 mps 733 mmHg 29%
    16:00 +41°C° 0 mm 2 mps 732 mmHg 31%
    17:00 +39°C° 0 mm 1 mps 732 mmHg 35%
    18:00 +36°C° 0 mm 1 mps 733 mmHg 39%
    19:00 +35°C° 0 mm 1 mps 733 mmHg 43%
    20:00 +34°C° 0.3 mm 1 mps 734 mmHg 48%
    21:00 +33°C° 0.3 mm 1 mps 735 mmHg 53%
    22:00 +32°C° 0.3 mm 1 mps 736 mmHg 58%
    23:00 +32°C° 0.2 mm 1 mps 735 mmHg 60%

    27 April, Saturday

    Time Temperature Precipitation Wind Pressure Humidity
    00:00 +31°C° 0.2 mm 1 mps 735 mmHg 62%
    01:00 +31°C° 0.2 mm 1 mps 735 mmHg 64%
    02:00 +30°C° 0.6 mm 1 mps 735 mmHg 69%
    03:00 +29°C° 0.6 mm 1 mps 735 mmHg 73%
    04:00 +27°C° 0.6 mm 0 mps 735 mmHg 78%
    05:00 +28°C° 1 mm 1 mps 736 mmHg 79%
    06:00 +28°C° 1 mm 2 mps 736 mmHg 80%
    07:00 +28°C° 1 mm 3 mps 737 mmHg 82%
    08:00 +31°C° 0 mm 3 mps 737 mmHg 68%
    09:00 +35°C° 0 mm 2 mps 737 mmHg 54%
    10:00 +38°C° 0 mm 2 mps 738 mmHg 40%
    11:00 +39°C° 0 mm 2 mps 737 mmHg 36%
    12:00 +40°C° 0 mm 1 mps 736 mmHg 32%
    13:00 +42°C° 0 mm 1 mps 736 mmHg 28%
    14:00 +41°C° 0 mm 1 mps 735 mmHg 29%
    15:00 +40°C° 0 mm 1 mps 734 mmHg 31%
    16:00 +40°C° 0 mm 1 mps 733 mmHg 32%
    17:00 +37°C° 0 mm 1 mps 734 mmHg 37%
    18:00 +35°C° 0 mm 1 mps 734 mmHg 42%
    19:00 +33°C° 0 mm 1 mps 734 mmHg 47%
    20:00 +33°C° 0 mm 1 mps 735 mmHg 50%
    21:00 +32°C° 0 mm 1 mps 735 mmHg 54%
    22:00 +31°C° 0 mm 1 mps 736 mmHg 58%
    23:00 +30°C° 0.6 mm 1 mps 736 mmHg 64%

    28 April, Sunday

    Time Temperature Precipitation Wind Pressure Humidity
    00:00 +29°C° 0.6 mm 1 mps 735 mmHg 70%
    01:00 +28°C° 0.6 mm 1 mps 735 mmHg 76%
    02:00 +28°C° 0 mm 1 mps 735 mmHg 78%
    03:00 +28°C° 0 mm 1 mps 735 mmHg 79%
    04:00 +27°C° 0 mm 1 mps 735 mmHg 81%
    05:00 +28°C° 0.2 mm 1 mps 735 mmHg 79%
    06:00 +28°C° 0.2 mm 1 mps 736 mmHg 78%
    07:00 +29°C° 0.2 mm 1 mps 737 mmHg 76%
    08:00 +31°C° 0 mm 1 mps 737 mmHg 65%
    09:00 +35°C° 0 mm 2 mps 737 mmHg 53%
    10:00 +38°C° 0 mm 2 mps 737 mmHg 42%
    11:00 +38°C° 0 mm 2 mps 736 mmHg 40%
    12:00 +39°C° 0 mm 2 mps 736 mmHg 37%
    13:00 +40°C° 0 mm 2 mps 735 mmHg 35%
    14:00 +39°C° 0 mm 2 mps 734 mmHg 36%
    15:00 +39°C° 0 mm 2 mps 734 mmHg 37%
    16:00 +39°C° 0 mm 2 mps 734 mmHg 38%
    17:00 +36°C° 0 mm 1 mps 734 mmHg 42%
    18:00 +35°C° 0 mm 1 mps 734 mmHg 45%
    19:00 +31°C° 0 mm 0 mps 735 mmHg 49%
    20:00 +32°C° 0.4 mm 1 mps 735 mmHg 56%
    21:00 +31°C° 0.4 mm 1 mps 735 mmHg 62%
    22:00 +30°C° 0.4 mm 1 mps 736 mmHg 69%
    23:00 +29°C° 0.3 mm 1 mps 735 mmHg 74%
    Show more